Bloomington, IN

5:38 PM EDT on June 25, 2017 (GMT -0400)
Monroe County

Weather History for KBMG - January, 2002

Change the Weather History Date:

Tuesday, January 8, 2002

  Actual Average Record
Temperature  
Mean Temperature 28 °F 29 °F  
Max Temperature 39 °F 38 °F 62 °F (2006)
Min Temperature 17 °F 21 °F -4 °F (2015)
Degree Days  
Heating Degree Days 37 36  
Month to date heating degree days 288  
Since 1 July heating degree days 2361  
Cooling Degree Days 0 0  
Month to date cooling degree days 0  
Year to date cooling degree days 0  
Moisture  
Dew Point 21 °F    
Average Humidity 69    
Maximum Humidity 85    
Minimum Humidity 53    
Precipitation  
Precipitation 0.00 in 0.12 in 2.37 in (2008)
Month to date precipitation 1.04  
Year to date precipitation 1.04  
Sea Level Pressure  
Sea Level Pressure 30.01 in    
Wind  
Wind Speed 9 mph (SSW)    
Max Wind Speed 18 mph    
Max Gust Speed 24 mph    
Visibility 9 miles    
Events      
T = Trace of Precipitation, MM = Missing Value Source: NWS Daily Summary

Daily Weather History Graph

Daily Weather History Graph

Search for Another Location

Airport or City:

Trip Planner

Search our weather history database for the weather conditions in past years. The results will help you decide how hot, cold, wet, or windy it might be!

Date:

Astronomy

Jan. 08, 2002 Rise Set
Actual Time 8:05 AM EST 5:40 PM EST
Civil Twilight 7:36 AM EST 6:10 PM EST
Nautical Twilight 7:03 AM EST 6:43 PM EST
Astronomical Twilight 6:30 AM EST 7:16 PM EST
Moon 3:16 AM EST (1/8) 2:02 PM EST (1/8)
Length of Visible Light 10h 34m
Length of Day
9h 34m
Waning Crescent, 23% of the Moon is Illuminated
Jan 8
Waning Crescent
Jan 13
New
Jan 21
First Quarter
Jan 28
Full
Feb 4
Last Quarter

Hourly Weather History & Observations

Time (EST) Temp. Windchill Dew Point Humidity Pressure Visibility Wind Dir Wind Speed Gust Speed Precip Events Conditions
12:53 AM 19.9 °F 11.1 °F 15.1 °F 81% 30.14 in 10.0 mi SSW 6.9 mph - N/A   Clear
1:53 AM 21.0 °F 13.4 °F 15.1 °F 78% 30.14 in 9.0 mi SW 5.8 mph - N/A   Clear
2:53 AM 19.9 °F 12.1 °F 15.1 °F 81% 30.13 in 8.0 mi SSW 5.8 mph - N/A   Clear
3:53 AM 19.0 °F 11.1 °F 14.0 °F 81% 30.12 in 8.0 mi South 5.8 mph - N/A   Clear
4:53 AM 19.9 °F 11.1 °F 16.0 °F 85% 30.11 in 9.0 mi South 6.9 mph - N/A   Clear
5:53 AM 19.0 °F 11.1 °F 15.1 °F 85% 30.11 in 8.0 mi South 5.8 mph - N/A   Clear
6:53 AM 17.1 °F 7.6 °F 12.9 °F 84% 30.08 in 6.0 mi SSE 6.9 mph - N/A   Clear
7:53 AM 18.0 °F 8.7 °F 14.0 °F 84% 30.09 in 7.0 mi South 6.9 mph - N/A   Clear
8:53 AM 21.0 °F 10.6 °F 17.1 °F 85% 30.06 in 7.0 mi South 9.2 mph - N/A   Clear
9:53 AM 25.0 °F 15.5 °F 19.0 °F 78% 30.05 in 10.0 mi South 9.2 mph - N/A   Clear
10:53 AM 30.0 °F 21.1 °F 19.9 °F 66% 30.06 in 10.0 mi SSW 10.4 mph - N/A   Clear
11:53 AM 35.1 °F 26.4 °F 21.9 °F 59% 30.03 in 10.0 mi SSW 12.7 mph - N/A   Clear
12:53 PM 36.0 °F 27.5 °F 21.9 °F 57% 30.00 in 10.0 mi SSW 12.7 mph - N/A   Clear
1:53 PM 37.9 °F 29.2 °F 23.0 °F 55% 29.95 in 10.0 mi SSW 15.0 mph - N/A   Clear
2:53 PM 39.0 °F 29.6 °F 23.0 °F 53% 29.93 in 10.0 mi SSW 18.4 mph 21.9 mph N/A   Clear
3:53 PM 39.0 °F 31.4 °F 24.1 °F 55% 29.93 in 10.0 mi South 12.7 mph 19.6 mph N/A   Clear
4:53 PM 39.0 °F 31.4 °F 25.0 °F 57% 29.92 in 10.0 mi SSW 12.7 mph 19.6 mph N/A   Clear
5:53 PM 39.0 °F 32.3 °F 26.1 °F 60% 29.91 in 10.0 mi SSW 10.4 mph - N/A   Clear
6:53 PM 37.9 °F 30.0 °F 26.1 °F 62% 29.91 in 10.0 mi SSW 12.7 mph - N/A   Clear
7:53 PM 37.9 °F 30.9 °F 26.1 °F 62% 29.93 in 10.0 mi SSW 10.4 mph - N/A   Clear
8:53 PM 39.9 °F 31.4 °F 27.0 °F 60% 29.90 in 10.0 mi SSW 16.1 mph 23.0 mph N/A   Clear
9:53 PM 39.9 °F 31.4 °F 27.0 °F 60% 29.89 in 10.0 mi SW 16.1 mph 23.0 mph N/A   Clear
10:53 PM 39.0 °F 31.4 °F 28.0 °F 65% 29.89 in 10.0 mi SW 12.7 mph 23.0 mph N/A   Clear
11:53 PM 39.0 °F 30.3 °F 28.0 °F 65% 29.88 in 10.0 mi SW 16.1 mph 24.2 mph N/A   Clear